FW5282 Weather Reports


Display with metric or nautical units.
time (UTC)temp
F
wind
direction
speed
MPH
gust
MPH
rain 1hr
in
rain 24hr
in
rain mn
in
humidity
%
barometer
mb
20260902045544 56 329 0.0 1.0 0.00 0.00 0.00 87 1020.1
20260902045033 56 327 0.0 1.0 0.00 0.00 0.00 86 1020.1
20260902044531 56 331 0.0 1.0 0.00 0.00 0.00 86 1020.0
20260902044102 56 342 0.0 1.0 0.00 0.00 0.00 85 1020.0
20260902043602 57 333 0.0 1.0 0.00 0.00 0.00 85 1019.9
20260902043039 57 332 0.0 1.0 0.00 0.00 0.00 85 1019.9
20260902042536 57 355 0.0 1.0 0.00 0.00 0.00 85 1019.9
20260902042033 57 344 0.0 1.0 0.00 0.00 0.00 85 1020.0
20260902041546 57 337 0.0 1.0 0.00 0.00 0.00 85 1020.0
20260902041036 57 350 0.0 1.0 0.00 0.00 0.00 85 1020.1
20260902040557 57 338 0.0 2.0 0.00 0.00 0.00 85 1020.1
20260902040049 57 336 0.0 2.0 0.00 0.00 0.00 85 1020.1
20260902035551 57 340 0.0 1.0 0.00 0.00 0.00 85 1020.1
20260902035044 57 340 1.0 1.0 0.00 0.00 0.00 85 1020.1
20260902034541 57 336 0.0 1.0 0.00 0.00 0.00 84 1020.0
20260902034036 57 342 0.0 1.0 0.00 0.00 0.00 84 1019.9
20260902033529 57 335 0.0 2.0 0.00 0.00 0.00 84 1020.0
20260902033025 57 339 1.0 2.0 0.00 0.00 0.00 85 1020.1
20260902032542 57 344 1.0 4.0 0.00 0.00 0.00 85 1020.1
20260902032039 57 327 1.0 4.0 0.00 0.00 0.00 85 1020.1
20260902031537 57 334 1.0 2.0 0.00 0.00 0.00 85 1020.1
20260902031107 57 346 0.0 2.0 0.00 0.00 0.00 84 1019.9
20260902030541 57 331 0.0 2.0 0.00 0.00 0.00 84 1019.9
20260902030029 57 336 0.0 1.0 0.00 0.00 0.00 84 1019.8
20260902025551 57 341 0.0 1.0 0.00 0.00 0.00 84 1019.7
20260902025044 57 336 0.0 1.0 0.00 0.00 0.00 84 1019.8
20260902024536 57 333 0.0 1.0 0.00 0.00 0.00 83 1019.8
20260902024043 58 334 0.0 1.0 0.00 0.00 0.00 83 1019.8
20260902023540 58 338 0.0 1.0 0.00 0.00 0.00 84 1019.8
20260902023032 58 341 0.0 2.0 0.00 0.00 0.00 83 1019.8
20260902022532 58 338 0.0 2.0 0.00 0.00 0.00 83 1019.8
20260902022049 58 343 0.0 1.0 0.00 0.00 0.00 82 1019.8
20260902021542 58 341 0.0 1.0 0.00 0.00 0.00 83 1019.8
20260902021035 58 347 0.0 1.0 0.00 0.00 0.00 83 1019.8
20260902020554 58 348 0.0 1.0 0.00 0.00 0.00 83 1019.8
20260902020046 58 343 0.0 1.0 0.00 0.00 0.00 82 1019.9
20260902015600 58 345 0.0 1.0 0.00 0.00 0.00 82 1019.9
20260902015107 58 336 0.0 1.0 0.00 0.00 0.00 82 1020.0
20260902014539 58 345 0.0 1.0 0.00 0.00 0.00 82 1020.0
20260902014029 58 341 0.0 1.0 0.00 0.00 0.00 81 1019.9
20260902013547 58 340 0.0 1.0 0.00 0.00 0.00 80 1020.0
20260902013044 59 346 0.0 1.0 0.00 0.00 0.00 80 1020.0
20260902012534 59 346 0.0 1.0 0.00 0.00 0.00 79 1020.1
20260902012054 59 335 0.0 1.0 0.00 0.00 0.00 79 1020.1
20260902011534 59 360 0.0 1.0 0.00 0.00 0.00 78 1020.0
20260902011030 59 5 0.0 1.0 0.00 0.00 0.00 78 1020.1
20260902010541 60 11 0.0 1.0 0.00 0.00 0.00 78 1020.2
20260902010028 60 18 0.0 1.0 0.00 0.00 0.00 77 1020.1
20260902005540 60 15 0.0 1.0 0.00 0.00 0.00 77 1020.1
20260902005033 60 347 0.0 1.0 0.00 0.00 0.00 77 1020.3
20260902004545 60 336 0.0 1.0 0.00 0.00 0.00 76 1020.3
20260902004041 60 327 0.0 1.0 0.00 0.00 0.00 76 1020.3
20260902003537 61 349 0.0 1.0 0.00 0.00 0.00 75 1020.2
20260902003056 61 346 0.0 1.0 0.00 0.00 0.00 75 1020.2
20260902002533 61 336 0.0 1.0 0.00 0.00 0.00 74 1020.2
20260902002043 61 351 0.0 1.0 0.00 0.00 0.00 75 1020.1
20260902001540 61 355 0.0 2.0 0.00 0.00 0.00 74 1019.9
20260902001034 61 360 1.0 3.0 0.00 0.00 0.00 74 1020.0
20260902000551 61 346 1.0 1.0 0.00 0.00 0.00 74 1020.1
20260902000043 61 351 1.0 2.0 0.00 0.00 0.00 74 1020.1
20260901235545 61 355 1.0 2.0 0.00 0.00 0.00 74 1020.2
20260901235034 61 342 1.0 2.0 0.00 0.00 0.00 73 1020.0
20260901234530 61 360 0.0 1.0 0.00 0.00 0.00 73 1019.9
20260901234043 61 355 0.0 1.0 0.00 0.00 0.00 73 1019.9
20260901233536 62 355 0.0 1.0 0.00 0.00 0.00 73 1019.9
20260901233104 62 348 0.0 2.0 0.00 0.00 0.00 72 1019.9
20260901232535 62 329 1.0 2.0 0.00 0.00 0.00 72 1020.0
20260901232027 62 11 1.0 1.0 0.00 0.00 0.00 71 1019.9
20260901231601 62 355 1.0 1.0 0.00 0.00 0.00 71 1019.9
20260901231034 62 345 1.0 2.0 0.00 0.00 0.00 71 1020.0
20260901230530 62 9 1.0 2.0 0.00 0.00 0.00 72 1020.1
20260901230057 62 331 1.0 2.0 0.00 0.00 0.00 71 1020.2
20260901225530 62 336 0.0 2.0 0.00 0.00 0.00 71 1020.1
20260901225047 63 355 0.0 2.0 0.00 0.00 0.00 71 1020.1
20260901224535 63 329 0.0 2.0 0.00 0.00 0.00 70 1020.1
20260901224033 63 345 1.0 3.0 0.00 0.00 0.00 70 1020.1
20260901223548 63 330 1.0 3.0 0.00 0.00 0.00 70 1020.1
20260901223031 63 355 1.0 3.0 0.00 0.00 0.00 70 1020.1
20260901222545 63 336 1.0 5.0 0.00 0.00 0.00 70 1020.1
20260901222036 63 334 1.0 4.0 0.00 0.00 0.00 72 1020.0
20260901221531 62 343 1.0 4.0 0.00 0.00 0.00 73 1020.1
20260901221059 62 25 1.0 4.0 0.00 0.00 0.00 74 1020.1
20260901220530 61 355 1.0 4.0 0.00 0.00 0.00 75 1020.1
20260901220101 61 349 1.0 3.0 0.00 0.00 0.00 77 1020.1
20260901215557 61 345 1.0 3.0 0.00 0.00 0.00 78 1020.0
20260901215029 61 309 1.0 2.0 0.00 0.00 0.00 78 1019.9
20260901214546 62 315 0.0 2.0 0.00 0.00 0.00 78 1019.9
20260901214041 62 309 1.0 2.0 0.00 0.00 0.00 77 1019.9
20260901213533 63 309 1.0 2.0 0.00 0.00 0.00 76 1019.8
20260901213107 63 309 0.0 2.0 0.00 0.00 0.00 75 1019.7
20260901212537 63 309 1.0 2.0 0.00 0.00 0.00 75 1019.8
20260901212030 63 305 0.0 2.0 0.00 0.00 0.00 76 1019.8
20260901211548 63 315 0.0 2.0 0.00 0.00 0.00 76 1019.8
20260901211054 63 313 1.0 2.0 0.00 0.00 0.00 75 1019.8
20260901210527 63 308 1.0 2.0 0.00 0.00 0.00 74 1019.8
20260901210045 63 312 1.0 2.0 0.00 0.00 0.00 74 1019.8
20260901205534 63 309 1.0 2.0 0.00 0.00 0.00 73 1019.8
20260901205028 64 309 1.0 2.0 0.00 0.00 0.00 74 1019.8
20260901204540 64 310 0.0 2.0 0.00 0.00 0.00 73 1019.8
20260901204034 64 311 1.0 2.0 0.00 0.00 0.00 73 1019.8
20260901203531 65 309 1.0 1.0 0.00 0.00 0.00 72 1019.8
20260901203028 65 315 0.0 0.0 0.00 0.00 0.00 71 1019.8
20260901202534 65 315 0.0 1.0 0.00 0.00 0.00 72 1019.8
20260901202028 65 315 0.0 1.0 0.00 0.00 0.00 71 1019.7
20260901201540 65 315 0.0 1.0 0.00 0.00 0.00 70 1019.7
20260901201037 65 315 0.0 1.0 0.00 0.00 0.00 71 1019.6
20260901200557 66 315 0.0 1.0 0.00 0.00 0.00 69 1019.5
20260901200028 66 312 0.0 1.0 0.00 0.00 0.00 69 1019.5
20260901195534 66 306 0.0 2.0 0.00 0.00 0.00 69 1019.6
20260901195107 67 320 0.0 2.0 0.00 0.00 0.00 68 1019.5
20260901194602 67 331 1.0 1.0 0.00 0.00 0.00 68 1019.4
20260901194038 67 338 0.0 1.0 0.00 0.00 0.00 66 1019.4
20260901193529 68 346 0.0 1.0 0.00 0.00 0.00 66 1019.3
20260901193046 68 347 0.0 1.0 0.00 0.00 0.00 66 1019.2
20260901192558 68 342 0.0 1.0 0.00 0.00 0.00 65 1019.1
20260901192030 68 334 0.0 1.0 0.00 0.00 0.00 65 1019.1
20260901191548 68 338 0.0 0.0 0.00 0.00 0.00 64 1019.1
20260901191040 69 338 0.0 0.0 0.00 0.00 0.00 65 1019.2
20260901190557 69 338 0.0 1.0 0.00 0.00 0.00 64 1019.1
20260901190047 70 338 0.0 1.0 0.00 0.00 0.00 62 1019.1
20260901185539 70 350 0.0 1.0 0.00 0.00 0.00 61 1019.1
20260901185032 70 355 0.0 1.0 0.00 0.00 0.00 61 1019.0
20260901184546 71 355 0.0 1.0 0.00 0.00 0.00 59 1019.0
20260901184029 71 321 0.0 1.0 0.00 0.00 0.00 60 1019.0
20260901183548 71 315 0.0 1.0 0.00 0.00 0.00 59 1018.9
20260901183042 71 311 0.0 1.0 0.00 0.00 0.00 59 1018.9
20260901182537 72 318 0.0 1.0 0.00 0.00 0.00 58 1018.8
20260901182029 72 309 0.0 2.0 0.00 0.00 0.00 57 1018.8
20260901181538 73 313 0.0 2.0 0.00 0.00 0.00 55 1018.8
20260901181028 73 326 0.0 2.0 0.00 0.00 0.00 55 1018.8
20260901180540 74 325 0.0 2.0 0.00 0.00 0.00 54 1018.8
20260901180107 74 315 0.0 3.0 0.00 0.00 0.00 54 1018.8
20260901175542 75 305 1.0 3.0 0.00 0.00 0.00 54 1018.8
20260901175030 75 317 1.0 2.0 0.00 0.00 0.00 52 1018.7
20260901174542 75 332 1.0 3.0 0.00 0.00 0.00 52 1018.8
20260901174032 76 324 0.0 2.0 0.00 0.00 0.00 51 1018.7
20260901173544 76 355 0.0 3.0 0.00 0.00 0.00 50 1018.7
20260901173042 76 331 1.0 3.0 0.00 0.00 0.00 50 1018.7
20260901172534 76 22 0.0 3.0 0.00 0.00 0.00 50 1018.8
20260901172027 77 355 1.0 3.0 0.00 0.00 0.00 49 1018.7
20260901171539 77 342 0.0 4.0 0.00 0.00 0.00 49 1018.8
20260901171034 77 344 2.0 5.0 0.00 0.00 0.00 48 1018.8
20260901170542 78 344 2.0 5.0 0.00 0.00 0.00 48 1018.8
20260901170035 77 331 3.0 5.0 0.00 0.00 0.00 49 1018.7
20260901165532 78 58 0.0 4.0 0.00 0.00 0.00 48 1018.7
20260901165043 78 36 2.0 4.0 0.00 0.00 0.00 48 1018.8
20260901164550 78 19 1.0 3.0 0.00 0.00 0.00 48 1018.7
20260901164046 78 355 0.0 5.0 0.00 0.00 0.00 48 1018.7
20260901163543 79 355 2.0 5.0 0.00 0.00 0.00 47 1018.7
20260901163031 80 34 3.0 5.0 0.00 0.00 0.00 46 1018.7
20260901162541 79 332 0.0 2.0 0.00 0.00 0.00 48 1018.8
20260901162034 79 325 1.0 4.0 0.00 0.00 0.00 49 1018.8
20260901161546 79 344 1.0 4.0 0.00 0.00 0.00 49 1018.9
20260901161100 79 39 1.0 3.0 0.00 0.00 0.00 48 1018.8
20260901160551 79 5 0.0 4.0 0.00 0.00 0.00 47 1018.9
20260901160033 78 289 1.0 4.0 0.00 0.00 0.00 49 1019.0
20260901155545 78 317 1.0 3.0 0.00 0.00 0.00 49 1019.0
20260901155040 78 51 1.0 4.0 0.00 0.00 0.00 48 1019.0
20260901154534 79 13 0.0 5.0 0.00 0.00 0.00 48 1019.1
20260901154049 80 348 2.0 5.0 0.00 0.00 0.00 47 1019.1
20260901153609 80 317 0.0 3.0 0.00 0.00 0.00 46 1019.1
20260901153034 80 330 0.0 1.0 0.00 0.00 0.00 47 1019.1
20260901152529 79 213 0.0 1.0 0.00 0.00 0.00 47 1019.1
20260901152048 79 317 0.0 1.0 0.00 0.00 0.00 48 1019.1
20260901151538 79 85 0.0 6.0 0.00 0.00 0.00 49 1019.1
20260901151046 80 338 1.0 8.0 0.00 0.00 0.00 47 1019.2
20260901150536 80 299 2.0 6.0 0.00 0.00 0.00 46 1019.1
20260901150058 80 311 1.0 6.0 0.00 0.00 0.00 48 1019.1
20260901145529 79 183 0.0 4.0 0.00 0.00 0.00 49 1019.1
20260901145034 79 46 1.0 5.0 0.00 0.00 0.00 49 1019.2
20260901144548 79 51 2.0 5.0 0.00 0.00 0.00 49 1019.2
20260901144042 78 87 0.0 3.0 0.00 0.00 0.00 51 1019.2
20260901143601 78 16 0.0 4.0 0.00 0.00 0.00 50 1019.3
20260901143055 78 20 1.0 5.0 0.00 0.00 0.00 49 1019.3
20260901142608 78 294 1.0 6.0 0.00 0.00 0.00 51 1019.3
20260901142039 78 10 2.0 5.0 0.00 0.00 0.00 51 1019.4
20260901141535 78 355 1.0 6.0 0.00 0.00 0.00 51 1019.4
20260901141053 77 355 1.0 6.0 0.00 0.00 0.00 50 1019.5
20260901140540 77 12 1.0 5.0 0.00 0.00 0.00 51 1019.5
20260901140030 77 53 1.0 4.0 0.00 0.00 0.00 52 1019.4
20260901135540 77 65 1.0 4.0 0.00 0.00 0.00 50 1019.4
20260901135034 78 360 1.0 4.0 0.00 0.00 0.00 50 1019.5
20260901134547 78 5 2.0 4.0 0.00 0.00 0.00 52 1019.5
20260901134040 77 19 1.0 4.0 0.00 0.00 0.00 50 1019.5
20260901133529 78 17 1.0 5.0 0.00 0.00 0.00 50 1019.7
20260901133036 78 277 1.0 5.0 0.00 0.00 0.00 49 1019.7
20260901132544 79 323 1.0 4.0 0.00 0.00 0.00 49 1019.8
20260901132037 78 209 0.0 9.0 0.00 0.00 0.00 52 1019.9
20260901131529 78 325 4.0 9.0 0.00 0.00 0.00 52 1019.9
20260901131040 77 5 0.0 5.0 0.00 0.00 0.00 51 1019.8
20260901130555 78 16 1.0 5.0 0.00 0.00 0.00 50 1019.8
20260901130042 78 325 0.0 6.0 0.00 0.00 0.00 50 1019.8
20260901125536 78 355 2.0 6.0 0.00 0.00 0.00 52 1019.9
20260901125046 78 46 2.0 8.0 0.00 0.00 0.00 53 1020.0
20260901124541 76 306 2.0 9.0 0.00 0.00 0.00 54 1020.1
20260901124033 76 355 4.0 9.0 0.00 0.00 0.00 54 1020.1
20260901123536 76 340 2.0 6.0 0.00 0.00 0.00 54 1020.1
20260901123053 76 345 2.0 8.0 0.00 0.00 0.00 52 1020.2
20260901122543 77 317 2.0 8.0 0.00 0.00 0.00 53 1020.2
20260901122028 76 201 0.0 5.0 0.00 0.00 0.00 52 1020.2
20260901121538 77 316 1.0 6.0 0.00 0.00 0.00 51 1020.3
20260901121043 77 351 3.0 6.0 0.00 0.00 0.00 52 1020.4
20260901120532 77 11 1.0 6.0 0.00 0.00 0.00 51 1020.3
20260901120034 78 323 1.0 8.0 0.00 0.00 0.00 51 1020.3
20260901115529 78 355 3.0 8.0 0.00 0.00 0.00 52 1020.3
20260901115039 78 40 0.0 4.0 0.00 0.00 0.00 51 1020.4
20260901114548 78 82 0.0 6.0 0.00 0.00 0.00 53 1020.3
20260901114103 78 327 1.0 6.0 0.00 0.00 0.00 52 1020.4
20260901113532 77 309 3.0 5.0 0.00 0.00 0.00 53 1020.4
20260901113041 76 351 1.0 4.0 0.00 0.00 0.00 54 1020.5
20260901112531 76 44 2.0 4.0 0.00 0.00 0.00 53 1020.6
20260901112041 76 259 0.0 6.0 0.00 0.00 0.00 55 1020.7
20260901111534 76 323 2.0 6.0 0.00 0.00 0.00 53 1020.7
20260901111104 76 317 1.0 4.0 0.00 0.00 0.00 52 1020.7
20260901110619 76 299 1.0 5.0 0.00 0.00 0.00 54 1020.8
20260901110052 76 23 0.0 7.0 0.00 0.00 0.00 53 1020.7
20260901105547 76 316 1.0 8.0 0.00 0.00 0.00 53 1020.8
20260901105033 76 140 2.0 8.0 0.00 0.00 0.00 52 1020.9
20260901104545 75 31 3.0 5.0 0.00 0.00 0.00 54 1020.9
20260901104032 75 360 0.0 3.0 0.00 0.00 0.00 54 1021.0
20260901103543 76 328 1.0 5.0 0.00 0.00 0.00 54 1021.0
20260901103030 75 326 2.0 6.0 0.00 0.00 0.00 56 1021.0
20260901102538 74 360 2.0 6.0 0.00 0.00 0.00 55 1021.1
20260901102048 73 350 1.0 3.0 0.00 0.00 0.00 57 1021.0
20260901101541 73 360 1.0 3.0 0.00 0.00 0.00 55 1021.0
20260901101037 73 60 1.0 5.0 0.00 0.00 0.00 56 1021.1
20260901100544 73 306 1.0 6.0 0.00 0.00 0.00 56 1021.1
20260901100034 72 340 2.0 6.0 0.00 0.00 0.00 58 1021.1
20260901095545 72 12 1.0 5.0 0.00 0.00 0.00 57 1021.1
20260901095031 73 15 1.0 4.0 0.00 0.00 0.00 57 1021.1
20260901094540 72 52 0.0 5.0 0.00 0.00 0.00 60 1021.3
20260901094049 72 355 2.0 5.0 0.00 0.00 0.00 61 1021.3
20260901093604 71 70 0.0 3.0 0.00 0.00 0.00 60 1021.2
20260901093048 71 57 1.0 3.0 0.00 0.00 0.00 62 1021.2
20260901092538 72 94 0.0 2.0 0.00 0.00 0.00 63 1021.2
20260901092033 71 327 0.0 2.0 0.00 0.00 0.00 64 1021.2
20260901091545 71 14 0.0 3.0 0.00 0.00 0.00 64 1021.2
20260901091035 70 5 1.0 4.0 0.00 0.00 0.00 67 1021.2
20260901090552 69 12 0.0 2.0 0.00 0.00 0.00 68 1021.2
20260901090057 69 312 0.0 3.0 0.00 0.00 0.00 69 1021.2
20260901085548 69 333 1.0 3.0 0.00 0.00 0.00 69 1021.2
20260901085037 68 336 0.0 4.0 0.00 0.00 0.00 71 1021.1
20260901084529 68 5 1.0 4.0 0.00 0.00 0.00 69 1021.1
20260901084044 68 51 1.0 4.0 0.00 0.00 0.00 70 1021.1
20260901083601 68 355 1.0 4.0 0.00 0.00 0.00 69 1021.1
20260901083028 68 24 1.0 4.0 0.00 0.00 0.00 72 1021.1
20260901082541 67 328 1.0 3.0 0.00 0.00 0.00 75 1021.1
20260901082048 67 14 1.0 3.0 0.00 0.00 0.00 75 1021.1
20260901081537 66 61 0.0 2.0 0.00 0.00 0.00 77 1021.1
20260901081030 66 344 0.0 3.0 0.00 0.00 0.00 77 1021.1
20260901080605 66 18 1.0 3.0 0.00 0.00 0.00 76 1021.1
20260901080033 65 346 1.0 4.0 0.00 0.00 0.00 78 1021.1
20260901075531 65 5 2.0 4.0 0.00 0.00 0.00 76 1021.1
20260901075050 66 15 2.0 5.0 0.00 0.00 0.00 75 1021.1
20260901074547 65 5 1.0 6.0 0.00 0.00 0.00 78 1021.0
20260901074046 64 351 2.0 5.0 0.00 0.00 0.00 78 1020.9
20260901073604 64 360 2.0 5.0 0.00 0.00 0.00 80 1020.9
20260901073038 64 9 1.0 3.0 0.00 0.00 0.00 80 1020.8
20260901072529 64 355 1.0 4.0 0.00 0.00 0.00 80 1020.7
20260901072036 64 322 1.0 4.0 0.00 0.00 0.00 81 1020.7
20260901071545 63 355 2.0 4.0 0.00 0.00 0.00 81 1020.7
20260901071040 62 360 2.0 4.0 0.00 0.00 0.00 82 1020.7
20260901070556 62 342 2.0 4.0 0.00 0.00 0.00 83 1020.6
20260901070044 62 5 1.0 4.0 0.00 0.00 0.00 82 1020.6
20260901065537 62 28 1.0 4.0 0.00 0.00 0.00 83 1020.6
20260901065054 62 329 1.0 3.0 0.00 0.00 0.00 83 1020.6
20260901064543 62 355 1.0 4.0 0.00 0.00 0.00 84 1020.5
20260901064039 62 355 1.0 3.0 0.00 0.00 0.00 84 1020.5
20260901063536 61 331 0.0 2.0 0.00 0.00 0.00 85 1020.5
20260901063030 61 15 1.0 3.0 0.00 0.00 0.00 85 1020.5
20260901062543 61 340 1.0 2.0 0.00 0.00 0.00 86 1020.5
20260901062033 60 333 1.0 2.0 0.00 0.00 0.00 86 1020.4
20260901061530 60 5 1.0 2.0 0.00 0.00 0.00 87 1020.4
20260901061058 60 340 1.0 2.0 0.00 0.00 0.00 89 1020.3
20260901060553 59 326 0.0 3.0 0.00 0.00 0.00 89 1020.4
20260901060044 58 9 1.0 3.0 0.00 0.00 0.00 89 1020.3
20260901055538 58 343 1.0 3.0 0.00 0.00 0.00 89 1020.2
20260901055037 58 344 1.0 3.0 0.00 0.00 0.00 89 1020.3
20260901054547 58 344 1.0 3.0 0.00 0.00 0.00 89 1020.2
20260901054032 58 331 1.0 1.0 0.00 0.00 0.00 88 1020.2
20260901053546 58 346 0.0 2.0 0.00 0.00 0.00 88 1020.1
20260901053042 58 349 1.0 2.0 0.00 0.00 0.00 88 1020.1
20260901052534 58 338 0.0 2.0 0.00 0.00 0.00 88 1020.0
20260901052031 58 331 1.0 2.0 0.00 0.00 0.00 88 1019.9
20260901051530 58 344 1.0 1.0 0.00 0.00 0.00 87 1019.9
20260901051049 59 338 0.0 2.0 0.00 0.00 0.00 87 1019.8
20260901050536 59 355 0.0 3.0 0.00 0.00 0.00 87 1019.9
20260901050031 59 331 1.0 4.0 0.00 0.00 0.00 87 1019.9